Weather Service Report


401 
ASUS45 KSLC 221310
RWRUT 

UTAH REGIONAL WEATHER ROUNDUP
NATIONAL WEATHER SERVICE SALT LAKE CITY UT
700 AM MDT TUE OCT 22 2019

UTZ001>011-023>025-221400-

NORTHERN UTAH
  
CITY           SKY/WX    TMP DP  RH WIND       PRES   REMARKS
BRIGHAM CITY   CLOUDY    45  34  65 CALM      30.35S                  
DUGWAY         PTCLDY    27  25  91 E5        30.38  WCI  22          
HILL AFB       CLOUDY    46  31  54 SE6       30.34S                  
LOGAN          CLOUDY    43  36  76 CALM      30.33S                  
OGDEN          CLOUDY    45  31  58 SE5       30.34S                  
SALT LAKE CITY MOCLDY    48  32  53 SE5       30.34S                  
TOOELE VALLEY  CLOUDY    46  32  57 S9        30.35S                  
WENDOVER       CLEAR     36  28  73 NW3       30.35S                  
HEBER CITY     CLOUDY    36  30  80 CALM      30.36S                  
WEST JORDAN    CLOUDY    46  36  69 S6        30.36S                  

$$

UTZ011>015-024>027-221400-

CENTRAL/NORTHEAST UTAH
  
CITY           SKY/WX    TMP DP  RH WIND       PRES   REMARKS
PROVO AIRPORT  MOCLDY   N/A N/A N/A E5        30.38S                  
MOAB/CANYONLAN CLEAR     34  19  54 CALM      30.33R                  
DELTA          PTCLDY    30  25  80 NE3       30.39S                  
PRICE          MOCLDY    37  27  67 CALM      30.32S                  
RICHFIELD      CLEAR     27  19  74 CALM      30.41R                  
ROOSEVELT      PTCLDY    28  19  69 CALM      30.34S                  
VERNAL         CLEAR     26  17  68 W5        30.32R WCI  20          

$$

UTZ013>016-019>022-027-221400-

SOUTHERN UTAH
  
CITY           SKY/WX    TMP DP  RH WIND       PRES   REMARKS
BRYCE CANYON   CLEAR     24  15  68 W8        30.43R WCI  15          
CEDAR CITY     PTCLDY    32  20  61 E3        30.37S                  
MILFORD        CLEAR     28  19  69 SW7       30.39R WCI  21          
ST GEORGE      MOSUNNY   46  16  30 S5        30.32R                  
HANKSVILLE     CLEAR     32  12  43 N3        30.36R                  
KANAB          CLEAR     39  19  45 NE6       30.39R WCI  35          
BLANDING         N/A     35  17  47 CALM      30.40F                  

$$

REGIONAL REPORTS     COLORADO/ARIZONA
  
CITY           SKY/WX    TMP DP  RH WIND       PRES   REMARKS
CRAIG, CO      CLOUDY    32  26  78 E3        30.33R                  
GRAND JUNCTION CLEAR     31  18  58 SE12      30.36R WCI  22          
RIFLE, CO      CLOUDY    26  19  74 CALM      30.38R                  
MONTROSE, CO   CLEAR     26  16  65 SE6       30.41R WCI  19          
CORTEZ, CO     CLEAR     23  12  62 NE8       30.34R WCI  14          
COLORADO CITY    N/A     34  19  55 E3        30.39R                  
PAGE, AZ       PTCLDY    47  23  38 CALM      30.32R                  
GRAND CANYON   MOCLDY    25   8  48 CALM      30.39S                  
KINGMAN, AZ    CLEAR     49  16  26 E9        30.26R                  
FLAGSTAFF, AZ  PTCLDY    27  13  55 CALM      30.38R                  

$$

REGIONAL REPORTS    NEVADA/IDAHO/WYOMING
  
CITY           SKY/WX    TMP DP  RH WIND       PRES   REMARKS
LAS VEGAS, NV  CLEAR     58  24  27 CALM      30.23R                  
ELY, NY        PTCLDY    24  14  65 S10       30.43S WCI  14          
ELKO, NV       CLEAR     31  24  75 CALM      30.41R                  
POCATELLO, ID  CLOUDY    45  32  60 SW16      30.30S                  
BURLEY, ID     CLEAR     46  35  65 W14       30.30S                  
EVANSTON, WY   CLOUDY    34  28  79 S10       30.34S WCI  26          
ROCK SPRINGS,  CLEAR     35  28  75 W23G37    30.24S WCI  23          
KEMMERER, WY   CLOUDY    32  28  86 SW9       30.30R WCI  24          

$$
  

Return to Home page


Western Regional Climate Center, wrcc@dri.edu